Regional Weather Roundup
Issued by NWS

Home | Current Version | Previous Version | Graphics & Text | Print | Product List | Glossary On
Versions: 1 2 3 4 5 6 7 8 9 10 11 12 13 14 15 16 17 18 19 20 21 22 23 24 25 26 27 28 29 30 31 32 33 34 35 36 37 38 39 40 41 42 43 44 45 46 47 48 49 50
000
ASUS43 KLMK 211602
RWRKY
KENTUCKY REGIONAL WEATHER ROUNDUP
NATIONAL WEATHER SERVICE LOUISVILLE KY
1100 AM EST SUN DEC 21 2014

NOTE "FAIR" INDICATES FEW OR NO CLOUDS BELOW 12,000 FEET
WITH NO SIGNIFICANT WEATHER AND/OR OBSTRUCTIONS TO VISIBILITY.

KYZ001>023-026-027-061>063-070>075-211700-
WESTERN AND SOUTH CENTRAL KENTUCKY

CITY           SKY/WX    TMP DP  RH WIND       PRES   REMARKS
PADUCAH        MOSUNNY   37  31  78 E3        30.23F
HENDERSON      SUNNY     34  27  75 E5        30.27S WCI  30
OWENSBORO      SUNNY     35  29  79 SE7       30.28R WCI  29
HOPKINSVILLE   SUNNY     37  30  77 E5        30.24S WCI  33
BOWLING GREEN  SUNNY     38  30  73 NE7       30.25F WCI  33
GLASGOW        NOT AVBL
$$

KYZ024-025-028>034-038-045-046-053-211700-
NORTH CENTRAL KENTUCKY

CITY           SKY/WX    TMP DP  RH WIND       PRES   REMARKS
LOUISVILLE/SDF MOSUNNY   35  28  75 E10       30.29F WCI  27
LOUISVILLE/LOU SUNNY     34  26  72 E9        30.30F WCI  27
FORT KNOX      SUNNY     33  28  81 E10       30.25F WCI  25
$$

KYZ035>037-039>044-047>052-055>060-089>105-211700-
NORTHEAST KENTUCKY

CITY           SKY/WX    TMP DP  RH WIND       PRES   REMARKS
LEXINGTON      MOSUNNY   34  28  79 E8        30.28F WCI  27
COVINGTON      PTSUNNY   32  23  69 E8        30.30F WCI  25
FRANKFORT      SUNNY     34  28  79 E9        30.29F WCI  27
$$

KYZ054-064>069-076>088-106>120-211700-
SOUTHEAST KENTUCKY

CITY           SKY/WX    TMP DP  RH WIND       PRES   REMARKS
JACKSON        SUNNY     33  26  75 VRB3      30.27S
LONDON         SUNNY     37  28  70 E7        30.26F WCI  32
SOMERSET       NOT AVBL
MIDDLESBORO    NOT AVBL
MONTICELLO     SUNNY     39  31  73 CALM      30.29S
$$



USA.gov is the U.S. government's official web portal to all federal, state and local government web resources and services.